| time (UTC) | temp F | wind direction | speed MPH | gust MPH | rain 1hr in | rain 24hr in | rain mn in | humidity % | barometer mb |
| 20260507032219 | 56 | 19 | 0.0 | 0.0 | 0.00 | 0.00 | 0.00 | 54 | 1018.2 |
| 20260507031219 | 56 | 76 | 1.0 | 3.0 | 0.00 | 0.00 | 0.00 | 53 | 1018.0 |
| 20260507030217 | 57 | 74 | 3.0 | 3.0 | 0.00 | 0.00 | 0.00 | 53 | 1017.9 |
| 20260507025217 | 57 | 74 | 3.0 | 5.0 | 0.00 | 0.00 | 0.00 | 52 | 1017.7 |
| 20260507024237 | 58 | 60 | 2.0 | 4.0 | 0.00 | 0.00 | 0.00 | 51 | 1017.6 |
| 20260507023217 | 58 | 67 | 2.0 | 3.0 | 0.00 | 0.00 | 0.00 | 50 | 1017.5 |
| 20260507022240 | 59 | 52 | 2.0 | 4.0 | 0.00 | 0.00 | 0.00 | 50 | 1017.4 |
| 20260507021218 | 59 | 65 | 3.0 | 5.0 | 0.00 | 0.00 | 0.00 | 49 | 1017.2 |
| 20260507020217 | 59 | 46 | 3.0 | 5.0 | 0.00 | 0.00 | 0.00 | 48 | 1017.1 |
| 20260507015238 | 60 | 60 | 5.0 | 9.0 | 0.00 | 0.00 | 0.00 | 48 | 1016.9 |
| 20260507014217 | 60 | 64 | 4.0 | 6.0 | 0.00 | 0.00 | 0.00 | 47 | 1016.8 |
| 20260507013218 | 61 | 57 | 4.0 | 6.0 | 0.00 | 0.00 | 0.00 | 46 | 1016.6 |
| 20260507012218 | 61 | 55 | 5.0 | 9.0 | 0.00 | 0.00 | 0.00 | 46 | 1016.6 |
| 20260507011218 | 61 | 55 | 6.0 | 9.0 | 0.00 | 0.00 | 0.00 | 45 | 1016.5 |
| 20260507010238 | 62 | 47 | 5.0 | 7.0 | 0.00 | 0.00 | 0.00 | 45 | 1016.5 |
| 20260507005218 | 62 | 19 | 4.0 | 7.0 | 0.00 | 0.00 | 0.00 | 45 | 1016.3 |
| 20260507004218 | 62 | 43 | 6.0 | 8.0 | 0.00 | 0.00 | 0.00 | 45 | 1016.4 |
| 20260507003239 | 62 | 68 | 6.0 | 9.0 | 0.00 | 0.00 | 0.00 | 45 | 1016.3 |
| 20260507002219 | 62 | 65 | 6.0 | 8.0 | 0.00 | 0.00 | 0.00 | 46 | 1016.1 |
| 20260507001239 | 62 | 59 | 4.0 | 6.0 | 0.00 | 0.00 | 0.00 | 46 | 1016.1 |
| 20260507000219 | 62 | 18 | 4.0 | 6.0 | 0.00 | 0.00 | 0.00 | 46 | 1016.0 |
| 20260506235219 | 62 | 42 | 3.0 | 5.0 | 0.00 | 0.00 | 0.00 | 45 | 1016.0 |
| 20260506234216 | 63 | 74 | 5.0 | 7.0 | 0.00 | 0.00 | 0.00 | 45 | 1015.9 |
| 20260506233219 | 63 | 74 | 4.0 | 6.0 | 0.00 | 0.00 | 0.00 | 45 | 1015.7 |
| 20260506232220 | 63 | 72 | 7.0 | 11.0 | 0.00 | 0.00 | 0.00 | 45 | 1015.5 |
| 20260506231219 | 63 | 39 | 4.0 | 8.0 | 0.00 | 0.00 | 0.00 | 45 | 1015.6 |
| 20260506230220 | 63 | 64 | 5.0 | 9.0 | 0.00 | 0.00 | 0.00 | 45 | 1015.5 |
| 20260506225237 | 63 | 14 | 1.0 | 3.0 | 0.00 | 0.00 | 0.00 | 45 | 1015.4 |
| 20260506224217 | 63 | 81 | 8.0 | 12.0 | 0.00 | 0.00 | 0.00 | 45 | 1015.3 |
| 20260506223220 | 63 | 60 | 7.0 | 9.0 | 0.00 | 0.00 | 0.00 | 45 | 1015.1 |
| 20260506222220 | 63 | 97 | 6.0 | 8.0 | 0.00 | 0.00 | 0.00 | 46 | 1014.9 |
| 20260506221217 | 63 | 66 | 5.0 | 6.0 | 0.00 | 0.00 | 0.00 | 46 | 1014.9 |
| 20260506220217 | 62 | 50 | 4.0 | 7.0 | 0.00 | 0.00 | 0.00 | 45 | 1015.0 |
| 20260506215238 | 62 | 76 | 8.0 | 10.0 | 0.00 | 0.00 | 0.00 | 46 | 1015.1 |
| 20260506214238 | 62 | 79 | 6.0 | 8.0 | 0.00 | 0.00 | 0.00 | 46 | 1015.0 |
| 20260506213221 | 62 | 70 | 5.0 | 9.0 | 0.00 | 0.00 | 0.00 | 47 | 1015.2 |
| 20260506212218 | 61 | 26 | 6.0 | 11.0 | 0.00 | 0.00 | 0.00 | 48 | 1015.3 |
| 20260506211238 | 61 | 58 | 5.0 | 8.0 | 0.00 | 0.00 | 0.00 | 49 | 1015.4 |
| 20260506210218 | 61 | 90 | 8.0 | 11.0 | 0.00 | 0.00 | 0.00 | 50 | 1015.5 |
| 20260506205218 | 61 | 70 | 6.0 | 9.0 | 0.00 | 0.00 | 0.00 | 51 | 1015.6 |
| 20260506204218 | 61 | 60 | 6.0 | 10.0 | 0.00 | 0.00 | 0.00 | 50 | 1015.7 |
| 20260506203239 | 60 | 45 | 5.0 | 9.0 | 0.00 | 0.00 | 0.00 | 52 | 1015.8 |
| 20260506202219 | 60 | 48 | 7.0 | 9.0 | 0.00 | 0.00 | 0.00 | 52 | 1016.0 |
| 20260506201219 | 60 | 46 | 5.0 | 8.0 | 0.00 | 0.00 | 0.00 | 53 | 1016.0 |
| 20260506200219 | 60 | 44 | 7.0 | 11.0 | 0.00 | 0.00 | 0.00 | 51 | 1016.0 |
| 20260506195216 | 60 | 24 | 8.0 | 12.0 | 0.00 | 0.00 | 0.00 | 52 | 1015.9 |
| 20260506194219 | 60 | 23 | 5.0 | 9.0 | 0.00 | 0.00 | 0.00 | 53 | 1016.1 |
| 20260506193220 | 59 | 84 | 6.0 | 8.0 | 0.00 | 0.00 | 0.00 | 53 | 1016.2 |
| 20260506192220 | 59 | 74 | 7.0 | 11.0 | 0.00 | 0.00 | 0.00 | 54 | 1016.4 |
| 20260506191217 | 59 | 66 | 4.0 | 9.0 | 0.00 | 0.00 | 0.00 | 54 | 1016.5 |
| 20260506190217 | 59 | 54 | 4.0 | 7.0 | 0.00 | 0.00 | 0.00 | 54 | 1016.6 |
| 20260506185220 | 59 | 78 | 5.0 | 9.0 | 0.00 | 0.00 | 0.00 | 53 | 1016.5 |
| 20260506184220 | 58 | 68 | 5.0 | 10.0 | 0.00 | 0.00 | 0.00 | 54 | 1016.5 |
| 20260506183220 | 58 | 48 | 3.0 | 6.0 | 0.00 | 0.00 | 0.00 | 54 | 1016.7 |
| 20260506182217 | 58 | 97 | 8.0 | 13.0 | 0.00 | 0.00 | 0.00 | 53 | 1016.8 |
| 20260506181217 | 59 | 81 | 8.0 | 10.0 | 0.00 | 0.00 | 0.00 | 53 | 1016.8 |
| 20260506180238 | 58 | 56 | 5.0 | 9.0 | 0.00 | 0.00 | 0.00 | 53 | 1016.9 |
| 20260506175241 | 58 | 76 | 7.0 | 10.0 | 0.00 | 0.00 | 0.00 | 53 | 1017.0 |
| 20260506174218 | 58 | 84 | 7.0 | 11.0 | 0.00 | 0.00 | 0.00 | 53 | 1017.1 |
| 20260506173218 | 58 | 73 | 6.0 | 8.0 | 0.00 | 0.00 | 0.00 | 54 | 1017.3 |
| 20260506172218 | 58 | 94 | 6.0 | 11.0 | 0.00 | 0.00 | 0.00 | 53 | 1017.1 |
| 20260506171218 | 57 | 94 | 7.0 | 10.0 | 0.00 | 0.00 | 0.00 | 54 | 1017.1 |
| 20260506170218 | 57 | 98 | 9.0 | 14.0 | 0.00 | 0.00 | 0.00 | 53 | 1017.1 |
| 20260506165219 | 57 | 107 | 8.0 | 10.0 | 0.00 | 0.00 | 0.00 | 54 | 1017.2 |
| 20260506164239 | 57 | 103 | 9.0 | 13.0 | 0.00 | 0.00 | 0.00 | 54 | 1017.4 |
| 20260506163219 | 56 | 85 | 8.0 | 11.0 | 0.00 | 0.00 | 0.00 | 54 | 1017.4 |
| 20260506162239 | 55 | 87 | 10.0 | 15.0 | 0.00 | 0.00 | 0.00 | 56 | 1017.3 |
| 20260506161219 | 55 | 98 | 10.0 | 14.0 | 0.00 | 0.00 | 0.00 | 55 | 1017.4 |
| 20260506160216 | 54 | 86 | 9.0 | 14.0 | 0.00 | 0.00 | 0.00 | 57 | 1017.3 |
| 20260506155219 | 54 | 99 | 12.0 | 17.0 | 0.00 | 0.00 | 0.00 | 59 | 1017.2 |
| 20260506154220 | 53 | 79 | 9.0 | 13.0 | 0.00 | 0.00 | 0.00 | 61 | 1017.2 |
| 20260506153220 | 53 | 66 | 9.0 | 11.0 | 0.00 | 0.00 | 0.00 | 63 | 1017.1 |
| 20260506152217 | 53 | 78 | 6.0 | 8.0 | 0.00 | 0.00 | 0.00 | 63 | 1017.2 |
| 20260506151217 | 52 | 67 | 10.0 | 14.0 | 0.00 | 0.00 | 0.00 | 65 | 1017.3 |
| 20260506150220 | 51 | 82 | 10.0 | 13.0 | 0.00 | 0.00 | 0.00 | 68 | 1017.2 |
| 20260506145220 | 50 | 67 | 8.0 | 10.0 | 0.00 | 0.00 | 0.00 | 71 | 1017.0 |
| 20260506144217 | 50 | 53 | 6.0 | 8.0 | 0.00 | 0.00 | 0.00 | 73 | 1016.8 |
| 20260506143217 | 50 | 66 | 7.0 | 8.0 | 0.00 | 0.00 | 0.00 | 74 | 1016.6 |
| 20260506142218 | 50 | 62 | 4.0 | 6.0 | 0.00 | 0.00 | 0.00 | 74 | 1016.7 |
| 20260506141217 | 50 | 65 | 6.0 | 8.0 | 0.00 | 0.00 | 0.00 | 74 | 1016.7 |
| 20260506140218 | 50 | 73 | 7.0 | 10.0 | 0.00 | 0.00 | 0.00 | 75 | 1016.7 |
| 20260506135224 | 49 | 61 | 6.0 | 9.0 | 0.00 | 0.00 | 0.00 | 76 | 1016.9 |
| 20260506134238 | 49 | 51 | 7.0 | 8.0 | 0.00 | 0.00 | 0.00 | 77 | 1016.8 |
| 20260506133218 | 49 | 49 | 6.0 | 9.0 | 0.00 | 0.00 | 0.00 | 77 | 1016.9 |
| 20260506132238 | 49 | 40 | 5.0 | 10.0 | 0.00 | 0.00 | 0.00 | 78 | 1017.0 |
| 20260506131218 | 49 | 31 | 5.0 | 7.0 | 0.00 | 0.00 | 0.00 | 78 | 1016.9 |
| 20260506130218 | 49 | 56 | 6.0 | 9.0 | 0.00 | 0.00 | 0.00 | 78 | 1016.7 |
| 20260506125218 | 49 | 66 | 5.0 | 8.0 | 0.00 | 0.00 | 0.00 | 78 | 1016.7 |
| 20260506124218 | 49 | 63 | 6.0 | 10.0 | 0.00 | 0.00 | 0.00 | 79 | 1016.7 |
| 20260506123219 | 48 | 27 | 4.0 | 6.0 | 0.00 | 0.00 | 0.00 | 80 | 1016.3 |
| 20260506122219 | 48 | 30 | 6.0 | 9.0 | 0.00 | 0.00 | 0.00 | 80 | 1016.2 |
| 20260506121219 | 48 | 52 | 6.0 | 7.0 | 0.00 | 0.00 | 0.00 | 80 | 1015.8 |
| 20260506120219 | 48 | 54 | 5.0 | 7.0 | 0.00 | 0.00 | 0.00 | 80 | 1015.7 |
| 20260506115219 | 48 | 59 | 6.0 | 8.0 | 0.00 | 0.00 | 0.00 | 80 | 1015.7 |
| 20260506114239 | 48 | 53 | 4.0 | 7.0 | 0.00 | 0.00 | 0.00 | 80 | 1015.7 |
| 20260506113220 | 48 | 56 | 1.0 | 5.0 | 0.00 | 0.00 | 0.00 | 79 | 1015.5 |
| 20260506112220 | 48 | 50 | 3.0 | 5.0 | 0.00 | 0.00 | 0.00 | 78 | 1015.4 |
| 20260506111220 | 48 | 46 | 4.0 | 7.0 | 0.00 | 0.00 | 0.00 | 78 | 1015.2 |
| 20260506110220 | 48 | 42 | 5.0 | 8.0 | 0.00 | 0.00 | 0.00 | 78 | 1015.2 |
| 20260506105220 | 49 | 54 | 4.0 | 5.0 | 0.00 | 0.00 | 0.00 | 77 | 1015.2 |
| 20260506104220 | 49 | 39 | 4.0 | 7.0 | 0.00 | 0.00 | 0.00 | 77 | 1015.7 |
| 20260506103220 | 49 | 356 | 3.0 | 4.0 | 0.00 | 0.00 | 0.00 | 76 | 1016.0 |
| 20260506102220 | 49 | 64 | 5.0 | 9.0 | 0.00 | 0.00 | 0.00 | 76 | 1015.6 |
| 20260506101241 | 49 | 43 | 4.0 | 7.0 | 0.00 | 0.00 | 0.00 | 76 | 1015.7 |
| 20260506100221 | 49 | 51 | 4.0 | 5.0 | 0.00 | 0.00 | 0.00 | 76 | 1015.8 |
| 20260506095231 | 49 | 43 | 2.0 | 3.0 | 0.00 | 0.00 | 0.00 | 76 | 1015.5 |
| 20260506094241 | 49 | 9 | 4.0 | 6.0 | 0.00 | 0.00 | 0.00 | 75 | 1015.2 |
| 20260506093221 | 49 | 46 | 4.0 | 5.0 | 0.00 | 0.00 | 0.00 | 74 | 1014.6 |
| 20260506092221 | 49 | 72 | 3.0 | 3.0 | 0.00 | 0.00 | 0.00 | 74 | 1014.6 |
| 20260506091221 | 49 | 62 | 5.0 | 8.0 | 0.00 | 0.00 | 0.00 | 73 | 1014.6 |
| 20260506090221 | 49 | 48 | 4.0 | 8.0 | 0.00 | 0.00 | 0.00 | 73 | 1014.4 |
| 20260506085242 | 49 | 2 | 2.0 | 4.0 | 0.00 | 0.00 | 0.00 | 72 | 1014.4 |
| 20260506084221 | 49 | 59 | 4.0 | 7.0 | 0.00 | 0.00 | 0.00 | 72 | 1014.4 |
| 20260506083242 | 49 | 54 | 5.0 | 8.0 | 0.00 | 0.00 | 0.00 | 72 | 1014.1 |
| 20260506082222 | 49 | 35 | 2.0 | 4.0 | 0.00 | 0.00 | 0.00 | 71 | 1013.7 |
| 20260506081222 | 49 | 19 | 6.0 | 9.0 | 0.00 | 0.00 | 0.00 | 71 | 1013.5 |
| 20260506080222 | 49 | 30 | 5.0 | 9.0 | 0.00 | 0.00 | 0.00 | 70 | 1013.4 |
| 20260506073222 | 49 | 65 | 6.0 | 8.0 | 0.00 | 0.00 | 0.00 | 70 | 1013.2 |
| 20260506072216 | 49 | 68 | 4.0 | 6.0 | 0.00 | 0.00 | 0.00 | 71 | 1012.9 |
| 20260506071217 | 49 | 61 | 4.0 | 6.0 | 0.00 | 0.00 | 0.00 | 70 | 1012.9 |
| 20260506070217 | 49 | 56 | 5.0 | 6.0 | 0.00 | 0.00 | 0.00 | 70 | 1013.0 |
| 20260506062217 | 49 | 65 | 7.0 | 10.0 | 0.00 | 0.00 | 0.00 | 69 | 1013.2 |
| 20260506061217 | 49 | 56 | 4.0 | 5.0 | 0.00 | 0.00 | 0.00 | 69 | 1013.1 |
| 20260506060218 | 49 | 64 | 5.0 | 6.0 | 0.00 | 0.00 | 0.00 | 69 | 1012.9 |
| 20260506051218 | 50 | 65 | 7.0 | 12.0 | 0.00 | 0.00 | 0.00 | 66 | 1012.9 |
| 20260506050218 | 50 | 67 | 5.0 | 8.0 | 0.00 | 0.00 | 0.00 | 66 | 1012.8 |
| 20260506044239 | 50 | 65 | 5.0 | 8.0 | 0.00 | 0.00 | 0.00 | 68 | 1013.0 |
| 20260506043219 | 50 | 76 | 3.0 | 8.0 | 0.00 | 0.00 | 0.00 | 70 | 1013.1 |
| 20260506042219 | 50 | 61 | 5.0 | 9.0 | 0.00 | 0.00 | 0.00 | 71 | 1013.0 |
| 20260506041219 | 50 | 59 | 5.0 | 7.0 | 0.00 | 0.00 | 0.00 | 72 | 1012.9 |
| 20260506040219 | 50 | 64 | 5.0 | 7.0 | 0.00 | 0.00 | 0.00 | 73 | 1013.0 |
| 20260506035219 | 50 | 65 | 5.0 | 7.0 | 0.00 | 0.00 | 0.00 | 74 | 1013.0 |
| 20260506034219 | 49 | 50 | 3.0 | 4.0 | 0.00 | 0.00 | 0.00 | 76 | 1013.0 |
| 20260506033219 | 49 | 47 | 5.0 | 6.0 | 0.00 | 0.00 | 0.00 | 77 | 1012.7 |